Stations météo

réclame
Mon MeteoGroup
Rodez, France (7552): Température de l'air & dewpoint: 14.07.2019 01:00:00 - 20.07.2019 01:00:00 (CEST)Rodez, France (7552): Température de l'air 5cm: 14.07.2019 01:00:00 - 20.07.2019 01:00:00 (CEST)Rodez, France (7552): Vitesse du vent & gusts: 14.07.2019 01:00:00 - 20.07.2019 01:00:00 (CEST)Rodez, France (7552): Direction du vent: 14.07.2019 01:00:00 - 20.07.2019 01:00:00 (CEST)Rodez, France (7552): reduced air pressure: 14.07.2019 01:00:00 - 20.07.2019 01:00:00 (CEST)Rodez, France (7552): visibility: 14.07.2019 01:00:00 - 20.07.2019 01:00:00 (CEST)Rodez, France (7552): Ensoleillement: 14.07.2019 01:00:00 - 20.07.2019 01:00:00 (CEST)Rodez, France (7552): Quantités de précipitations: 14.07.2019 01:00:00 - 20.07.2019 01:00:00 (CEST)
Date & Time tt [°C] td [°C] tt 5cm [°C] ff [km/h] ff [knt] fx [km/h] fx [knt] dd ppp [hPa] vv [km] sd [min] rr [mm]
20.07.2019 01:00:00 19,7 12,5 18,2 15 8 22 12 SE 1014,0 55 0 0,0
20.07.2019 00:00:00 20,7 12,9 14,6 15 8 23 13 SE 1014,0 57 0 0,0
19.07.2019 23:00:00 19,9 11,6 13,6 12 6 19 11 SE 1014,2 57 0 0,0
19.07.2019 22:00:00 22,6 11,0 16,1 8 4 14 8 S 1013,2 60 2 0,0
19.07.2019 21:00:00 25,2 10,3 24,6 9 5 16 9 SSE 1012,5 59 60 0,0
19.07.2019 20:00:00 27,6 10,3 31,0 11 6 19 10 SE 1012,0 56 60 0,0
19.07.2019 19:00:00 28,9 10,1 35,1 9 5 21 11 SSW 1011,9 58 60 0,0
19.07.2019 18:00:00 28,7 12,2 35,0 5 3 25 14 SE 1012,6 51 60 0,0
19.07.2019 17:00:00 28,6 12,5 35,3 9 5 24 13 SW 1012,9 60 60 0,0
19.07.2019 16:00:00 27,9 11,0 34,5 9 5 21 11 NW 1013,5 58 60 0,0
19.07.2019 15:00:00 26,8 11,3 33,9 11 6 27 15 W 1014,3 54 60 0,0
19.07.2019 14:00:00 26,0 11,0 32,8 10 5 20 11 NW 1015,1 55 60 0,0
19.07.2019 13:00:00 24,3 11,6 31,3 7 4 23 12 WSW 1015,9 53 60 0,0
19.07.2019 12:00:00 22,3 11,7 29,7 8 4 21 11 W 1016,8 47 60 0,0
19.07.2019 11:00:00 21,6 11,6 27,6 9 5 21 11 N 1017,1 18 60 0,0
19.07.2019 10:00:00 20,3 11,5 25,7 5 3 14 8 NE 1017,4 20 60 0,0
19.07.2019 09:00:00 18,5 11,8 18,7 4 2 9 5 ESE 1017,8 33 60 0,0
19.07.2019 08:00:00 14,0 11,2 7,6 3 2 5 3 SE 1018,7 27 57 0,0
19.07.2019 07:00:00 10,7 9,9 6,0 0 0 4 2 N 1019,5 25 0 0,0
19.07.2019 06:00:00 10,7 9,9 5,7 2 1 4 2 S 1019,5 26 0 0,0
19.07.2019 05:00:00 10,8 9,4 6,1 2 1 3 2 SSE 1019,3 29 0 0,0
19.07.2019 04:00:00 11,7 9,9 6,5 2 1 5 3 SE 1019,2 33 0 0,0
19.07.2019 03:00:00 11,6 9,7 7,0 3 2 5 3 S 1019,5 32 0 0,0
19.07.2019 02:00:00 13,1 9,9 7,8 4 2 5 3 S 1019,1 36 0 0,0
19.07.2019 01:00:00 13,8 10,0 8,7 4 2 5 3 S 1018,9 34 0 0,0
19.07.2019 00:00:00 16,7 10,5 12,8 3 2 13 7 NW 1018,1 45 0 0,0
18.07.2019 23:00:00 17,5 10,4 13,5 8 4 10 5 NW 1017,8 58 0 0,0
18.07.2019 22:00:00 18,6 10,4 15,3 8 4 17 9 NNW 1017,2 60 4 0,0
18.07.2019 21:00:00 20,7 10,2 20,4 13 7 29 15 NW 1016,3 20 60 0,0
18.07.2019 20:00:00 22,0 10,2 24,1 18 10 37 20 NW 1015,7 38 60 0,0
18.07.2019 19:00:00 22,7 10,5 26,4 18 10 38 20 NW 1015,3 30 60 0,0
18.07.2019 18:00:00 23,1 10,5 27,7 20 11 36 19 NW 1015,3 33 60 0,0
18.07.2019 17:00:00 22,6 10,7 27,5 16 8 38 20 NNW 1015,6 39 58 0,0
18.07.2019 16:00:00 22,7 10,5 26,3 18 10 55 30 NW 1015,9 43 57 0,0
18.07.2019 15:00:00 21,1 10,0 27,2 19 10 33 18 NW 1016,4 34 57 0,0
18.07.2019 14:00:00 20,1 9,3 22,6 14 8 36 19 WNW 1017,2 29 47 0,0
18.07.2019 13:00:00 19,4 9,6 21,3 16 8 29 16 W 1017,5 38 26 0,0
18.07.2019 12:00:00 17,3 9,9 19,3 10 5 26 14 WNW 1018,1 44 9 0,0
18.07.2019 11:00:00 16,5 10,3 18,0 14 8 28 15 NW 1018,2 27 13 0,0
18.07.2019 10:00:00 15,5 10,9 15,8 18 10 29 15 WNW 1018,7 43 9 0,0
18.07.2019 09:00:00 14,6 11,4 14,2 14 8 25 14 W 1018,4 25 0 0,0
18.07.2019 08:00:00 13,8 11,7 12,6 14 7 23 12 W 1018,2 26 8 0,0
18.07.2019 07:00:00 13,0 11,6 11,8 16 8 24 13 W 1017,6 24 0 0,0
18.07.2019 06:00:00 13,9 10,3 10,8 13 7 17 9 W 1017,2 47 0 0,0
18.07.2019 05:00:00 13,3 10,1 10,5 5 3 14 7 W 1016,8 50 0 0,0
18.07.2019 04:00:00 14,7 10,1 13,3 10 6 24 13 W 1016,5 58 0 0,0
18.07.2019 03:00:00 15,7 10,5 14,7 17 9 28 15 W 1016,6 59 0 0,0
18.07.2019 02:00:00 17,2 11,0 16,0 18 10 27 14 W 1016,0 57 0 0,0
18.07.2019 01:00:00 18,6 11,4 17,5 16 9 29 16 WNW 1015,5 55 0 0,0
18.07.2019 00:00:00 19,9 11,4 18,9 20 11 31 17 WNW 1015,0 52 0 0,0
17.07.2019 23:00:00 21,5 9,7 19,4 19 10 29 16 WNW 1014,3 59 0 0,0
17.07.2019 22:00:00 21,7 9,6 19,7 15 8 23 12 W 1013,6 60 6 0,0
17.07.2019 21:00:00 23,7 9,3 23,0 16 8 29 16 NW 1012,5 43 38 0,0
17.07.2019 20:00:00 26,4 8,8 27,9 17 9 34 18 NW 1011,7 44 60 0,0
17.07.2019 19:00:00 27,3 7,7 30,4 22 12 36 19 NW 1011,5 49 60 0,0
17.07.2019 18:00:00 27,9 8,7 31,3 18 10 41 22 NW 1011,5 60 58 0,0
17.07.2019 17:00:00 27,8 8,1 32,7 22 12 39 21 WNW 1012,0 29 60 0,0
17.07.2019 16:00:00 28,1 8,9 31,8 17 9 38 20 WNW 1012,1 33 49 0,0
17.07.2019 15:00:00 26,7 9,5 32,6 14 7 33 18 NW 1012,6 22 60 0,0
17.07.2019 14:00:00 25,0 9,3 30,8 18 10 33 18 NW 1013,4 21 60 0,0
17.07.2019 13:00:00 25,2 9,9 29,3 15 8 32 17 WNW 1013,7 45 60 0,0
17.07.2019 12:00:00 24,2 9,7 29,4 16 9 35 19 NW 1014,0 53 60 0,0
17.07.2019 11:00:00 24,0 11,3 29,1 18 10 30 16 WNW 1014,0 60 60 0,0
17.07.2019 10:00:00 21,9 11,0 26,1 6 4 14 8 W 1014,6 37 60 0,0
17.07.2019 09:00:00 19,5 11,3 19,9 4 2 9 5 NNW 1015,2 12 54 0,0
17.07.2019 08:00:00 15,0 10,8 9,0 4 2 9 5 SE 1016,1 39 37 0,0
17.07.2019 07:00:00 12,1 8,8 6,5 3 1 7 4 S 1016,5 41 0 0,0
17.07.2019 06:00:00 12,0 8,8 6,6 3 2 6 4 SSE 1016,5 45 0 0,0
17.07.2019 05:00:00 12,2 8,7 8,0 4 2 8 4 S 1016,4 51 0 0,0
17.07.2019 04:00:00 14,1 8,7 8,6 2 1 8 4 ESE 1016,1 54 0 0,0
17.07.2019 03:00:00 13,9 8,5 8,7 7 4 8 5 S 1016,2 60 0 0,0
17.07.2019 02:00:00 14,4 8,1 9,0 3 2 6 4 WSW 1016,5 60 0 0,0
17.07.2019 01:00:00 15,5 8,2 9,3 5 3 8 4 SSW 1016,6 60 0 0,0
17.07.2019 00:00:00 18,8 7,2 10,8 3 2 10 5 WSW 1015,7 60 0 0,0
16.07.2019 23:00:00 18,0 8,0 10,9 4 2 8 4 SW 1016,1 60 0 0,0
16.07.2019 22:00:00 20,4 7,0 15,9 4 2 13 7 WSW 1015,0 60 4 0,0
16.07.2019 21:00:00 22,6 7,9 21,5 11 6 18 10 WNW 1014,3 60 60 0,0
16.07.2019 20:00:00 25,9 7,5 28,5 10 6 22 12 NW 1013,6 52 60 0,0
16.07.2019 19:00:00 27,0 7,9 29,9 11 6 22 12 W 1013,3 42 56 0,0
16.07.2019 18:00:00 27,1 4,8 31,8 9 5 24 13 W 1013,6 48 60 0,0
16.07.2019 17:00:00 26,3 7,3 28,2 13 7 26 14 W 1014,1 42 35 0,0
16.07.2019 16:00:00 25,4 5,0 27,6 10 5 29 16 WNW 1014,7 37 19 0,0
16.07.2019 15:00:00 25,8 6,9 30,9 12 7 26 14 WSW 1014,7 60 53 0,0
16.07.2019 14:00:00 25,1 8,1 32,2 9 5 28 15 NNW 1014,8 60 58 0,0
16.07.2019 13:00:00 23,8 7,0 30,5 5 3 28 15 NE 1015,3 54 57 0,0
16.07.2019 12:00:00 23,4 8,7 27,6 8 5 25 14 WNW 1015,5 45 53 0,0
16.07.2019 11:00:00 22,6 7,9 29,5 9 5 22 12 NNW 1015,8 30 60 0,0
16.07.2019 10:00:00 21,1 9,3 25,0 4 2 11 6 NE 1016,2 54 60 0,0
16.07.2019 09:00:00 17,9 9,3 19,2 4 2 10 5 SE 1017,1 48 60 0,0
16.07.2019 08:00:00 14,0 9,8 8,3 3 2 9 5 SSE 1017,7 36 60 0,0
16.07.2019 07:00:00 11,0 8,4 4,7 4 2 8 5 ESE 1018,2 32 0 0,0
16.07.2019 06:00:00 9,5 6,9 4,5 2 1 7 4 SE 1018,6 43 0 0,0
16.07.2019 05:00:00 11,0 7,9 5,6 4 2 6 3 SSE 1018,1 46 0 0,0
16.07.2019 04:00:00 11,4 7,5 6,8 5 3 9 5 SSW 1018,2 53 0 0,0
16.07.2019 03:00:00 16,6 8,0 13,6 3 2 14 8 NNE 1017,0 59 0 0,0
16.07.2019 02:00:00 17,5 7,8 13,5 10 5 21 12 N 1016,8 60 0 0,0
16.07.2019 01:00:00 17,4 7,4 13,6 3 2 12 6 NNE 1016,9 60 0 0,0
16.07.2019 00:00:00 18,6 7,4 12,0 6 4 12 7 NNE 1016,5 60 0 0,0
15.07.2019 23:00:00 19,1 7,2 12,8 2 1 13 7 NE 1016,0 60 0 0,0
15.07.2019 22:00:00 20,6 7,2 16,4 7 4 16 9 N 1015,1 60 5 0,0
15.07.2019 21:00:00 22,9 8,6 22,5 11 6 25 13 N 1013,9 49 60 0,0
15.07.2019 20:00:00 24,3 8,3 23,8 13 7 36 20 N 1013,0 32 39 0,0
15.07.2019 19:00:00 24,9 10,0 26,2 23 12 49 27 NW 1012,5 45 48 0,0
15.07.2019 18:00:00 25,3 10,0 25,9 25 14 42 23 NW 1012,2 29 35 0,0
15.07.2019 17:00:00 25,5 9,3 27,2 22 12 48 26 NW 1012,0 60 51 0,0
15.07.2019 16:00:00 24,8 9,1 27,7 22 12 47 25 NNW 1012,0 60 53 0,0
15.07.2019 15:00:00 24,5 9,6 24,3 26 14 41 22 WNW 1012,1 60 46 0,0
15.07.2019 14:00:00 23,0 8,7 29,6 24 13 45 24 NW 1012,6 37 60 0,0
15.07.2019 13:00:00 21,8 8,3 27,2 21 12 37 20 NW 1013,2 43 60 0,0
15.07.2019 12:00:00 20,7 9,3 25,4 14 8 35 19 NW 1013,5 49 60 0,0
15.07.2019 11:00:00 19,4 8,7 24,7 18 10 32 17 NW 1014,0 57 60 0,0
15.07.2019 10:00:00 18,4 8,6 23,2 15 8 23 12 N 1014,3 38 60 0,0
15.07.2019 09:00:00 17,1 9,3 19,2 14 7 28 15 N 1014,6 52 60 0,0
15.07.2019 08:00:00 16,0 9,0 13,9 15 8 26 14 N 1014,5 19 60 0,0
15.07.2019 07:00:00 14,7 9,1 11,9 16 9 29 16 NNE 1014,7 42 0 0,0
15.07.2019 06:00:00 14,0 9,2 10,9 10 6 21 12 N 1014,9 56 0 0,0
15.07.2019 05:00:00 14,5 9,1 10,5 8 5 22 12 NNW 1014,3 60 0 0,0
15.07.2019 04:00:00 15,3 9,0 13,6 11 6 19 11 NW 1014,2 60 0 0,0
15.07.2019 03:00:00 16,3 9,0 14,6 11 6 25 14 NNW 1014,0 60 0 0,0
15.07.2019 02:00:00 17,1 8,5 15,6 11 6 26 14 N 1013,9 60 0 0,0
15.07.2019 01:00:00 18,3 7,7 16,2 10 6 26 14 N 1013,6 60 0 0,0
15.07.2019 00:00:00 19,2 6,6 16,5 6 3 29 16 N 1013,3 60 0 0,0
14.07.2019 23:00:00 20,5 6,4 19,1 16 8 35 19 N 1012,8 60 0 0,0
14.07.2019 22:00:00 22,0 7,4 20,9 14 8 26 14 N 1011,8 60 7 0,0
14.07.2019 21:00:00 23,8 8,6 23,6 16 9 36 20 N 1010,7 51 60 0,0
14.07.2019 20:00:00 25,7 9,1 27,3 16 9 40 21 N 1009,6 60 53 0,0
14.07.2019 19:00:00 26,6 9,4 26,1 18 10 35 19 NW 1009,2 60 41 0,0
14.07.2019 18:00:00 27,3 9,2 31,3 17 9 39 21 NNW 1009,2 40 60 0,0
14.07.2019 17:00:00 27,0 9,4 31,7 18 10 47 25 WNW 1009,5 47 57 0,0
14.07.2019 16:00:00 26,3 7,8 32,9 16 9 36 19 N 1009,9 53 60 0,0
14.07.2019 15:00:00 25,8 6,9 32,3 21 12 40 22 NNW 1010,2 60 60 0,0
14.07.2019 14:00:00 24,8 8,3 31,5 16 9 39 21 NNW 1010,7 60 60 0,0
14.07.2019 13:00:00 24,1 8,5 31,3 11 6 28 15 WNW 1011,2 59 60 0,0
14.07.2019 12:00:00 23,2 9,6 28,8 12 6 23 12 NNW 1011,9 60 60 0,0
14.07.2019 11:00:00 22,2 10,0 28,2 6 4 18 10 N 1012,1 49 60 0,0
14.07.2019 10:00:00 20,4 9,6 26,0 6 4 18 10 N 1012,9 35 60 0,0
14.07.2019 09:00:00 19,2 9,4 21,3 6 4 12 7 NE 1013,0 48 60 0,0
14.07.2019 08:00:00 17,0 9,2 11,5 3 1 9 5 E 1013,4 47 60 0,0
14.07.2019 07:00:00 13,1 9,0 7,0 0 0 10 5 N 1014,5 41 0 0,0
14.07.2019 06:00:00 13,2 8,5 6,8 6 3 10 5 NE 1014,6 45 0 0,0
14.07.2019 05:00:00 12,3 8,0 7,6 4 2 8 4 E 1015,2 53 0 0,0
14.07.2019 04:00:00 13,4 8,2 8,0 2 1 6 4 S 1015,4 60 0 0,0
14.07.2019 03:00:00 15,1 7,9 9,3 0 0 11 6 N 1015,2 60 0 0,0
14.07.2019 02:00:00 17,3 7,6 11,6 7 4 11 6 NNE 1014,8 60 0 0,0
14.07.2019 01:00:00 18,9 7,3 14,0 7 4 16 8 NE 1014,6 60 0 0,0

tt = Température de l'air
td = dewpoint
tt 5cm = Température de l'air 5cm
ff = Vitesse du vent
fx = gusts
dd = Direction du vent
ppp = reduced air pressure
vv = visibility
sd = Ensoleillement
rr = Quantités de précipitations

stations d'obs. à proximité